TimeEDT,TemperatureF,Dew PointF,Humidity,Sea Level PressureIn,VisibilityMPH,Wind Direction,Wind SpeedMPH,Gust SpeedMPH,PrecipitationIn,Events,Conditions,WindDirDegrees,DateUTC
12:53 AM,82.9,73.9,74,30.03,10.0,East,11.5,-,N/A,,Scattered Clouds,100,2013-08-09 04:53:00
1:53 AM,82.9,73.9,74,30.01,10.0,East,13.8,-,N/A,,Clear,90,2013-08-09 05:53:00
2:53 AM,82.0,73.9,76,29.99,10.0,East,10.4,-,N/A,,Clear,90,2013-08-09 06:53:00
3:53 AM,82.0,73.9,76,29.97,10.0,ESE,10.4,-,N/A,,Clear,110,2013-08-09 07:53:00
4:53 AM,82.0,73.9,76,29.97,10.0,ESE,12.7,-,N/A,,Clear,120,2013-08-09 08:53:00
5:53 AM,82.0,73.0,74,29.97,10.0,ESE,9.2,-,N/A,,Clear,120,2013-08-09 09:53:00
6:53 AM,82.0,73.9,76,29.98,10.0,ESE,12.7,-,N/A,,Clear,120,2013-08-09 10:53:00
7:53 AM,84.0,73.0,69,29.99,10.0,ESE,9.2,-,N/A,,Partly Cloudy,110,2013-08-09 11:53:00
8:53 AM,82.9,73.9,74,30.01,10.0,ESE,9.2,-,N/A,,Clear,110,2013-08-09 12:53:00
9:53 AM,86.0,73.9,67,30.03,10.0,ESE,12.7,-,0.00,,Clear,120,2013-08-09 13:53:00
10:53 AM,87.1,75.0,67,30.04,10.0,ESE,16.1,-,N/A,,Partly Cloudy,110,2013-08-09 14:53:00
11:53 AM,77.0,69.1,76,30.05,2.0,East,12.7,34.5,0.09,Rain,Heavy Rain,90,2013-08-09 15:53:00
12:08 PM,82.4,69.8,66,30.04,10.0,East,4.6,-,0.02,Rain,Light Rain,90,2013-08-09 16:08:00
12:53 PM,82.9,77.0,82,30.05,10.0,SSE,16.1,23.0,0.02,,Partly Cloudy,150,2013-08-09 16:53:00
1:53 PM,82.0,73.9,76,30.07,10.0,SSE,12.7,24.2,0.00,Rain,Light Rain,150,2013-08-09 17:53:00
2:53 PM,82.9,71.1,67,30.05,10.0,SE,17.3,24.2,0.00,,Overcast,140,2013-08-09 18:53:00
3:53 PM,84.0,71.1,65,30.02,10.0,ESE,11.5,-,0.00,,Overcast,120,2013-08-09 19:53:00
4:53 PM,82.9,73.9,74,30.02,10.0,ESE,19.6,25.3,N/A,,Mostly Cloudy,120,2013-08-09 20:53:00
5:53 PM,82.9,71.1,67,30.02,10.0,ESE,12.7,-,N/A,,Mostly Cloudy,120,2013-08-09 21:53:00
6:53 PM,82.9,70.0,65,30.03,10.0,SE,10.4,-,N/A,,Clear,130,2013-08-09 22:53:00
7:53 PM,82.0,72.0,71,30.04,10.0,SE,9.2,-,N/A,,Clear,130,2013-08-09 23:53:00
8:53 PM,81.0,73.0,77,30.05,10.0,SE,5.8,-,N/A,,Clear,130,2013-08-10 00:53:00
9:53 PM,81.0,72.0,74,30.07,10.0,ESE,6.9,-,N/A,,Clear,120,2013-08-10 01:53:00
10:53 PM,82.0,73.9,76,30.08,10.0,East,9.2,-,N/A,,Clear,100,2013-08-10 02:53:00
11:53 PM,82.0,73.0,74,30.08,10.0,East,9.2,-,N/A,,Partly Cloudy,90,2013-08-10 03:53:00